sat.trackr.live / text

‹ back to catalog

STARLINK-3739

NORAD 52266 · 2022-041F

PAYLOAD ACTIVE UNKNOWN

§ Identity

Operator
Country
US
Launch date
2022-04-21
Launch site
AFETR
Launch vehicle
Mass (kg)
RCS (m²)

Purposes: comms

External: N2YO · Heavens-Above · Gunter

§ Orbital elements

Epoch: 2026-09-19T17:36:23.862528Z

Period
95.25 min
Inclination
53.2139°
Eccentricity
0.0000690
Mean motion
15.11844024 rev/d
Perigee alt
530.1 km
Apogee alt
531.1 km
Semi-major
6,908.7 km
B*
6.2811e-4
RAAN
316.7691°
Arg perigee
80.8141°
Mean anomaly
279.2931°
Rev number
24,367

§ Raw data

STARLINK-37391 52266U 22041F   26262.73360952  .00010580  00000+0  62811-3 0  99972 52266  53.2139 316.7691 0000690  80.8141 279.2931 15.11844024243671

JSON: /api/v1/satellites/52266 · /tle

For live sub-satellite position, see the globe view (requires WebGL).

§ Visibility from observer

Set your observer location to see the next 7 days of passes ≥ 10°. The values pass through the URL so the page stays shareable.

No JS? Fill the form by hand. The geolocation button needs JavaScript.